Wind_Speed
58 59 60 62 65 69 72 74 74 74 74 75 77 80 83 86 90 92 93 95 96 97 97 98 98 98 99 99 100 99 97 95 92 88 85 83 80 78 76 75 74 75 76 76 76 76 76 76 77 77 77 75 75 74 73 73 71 69 69 67 66 65 64 62 60 60 63 64 62 61 55 49 47 47 46 46 45 42 42 44 44 43 42 41 39
59 60 61 64 68 72 76 81 84 86 86 86 88 89 91 91 92 94 96 98 99 100 100 101 101 102 102 102 102 100 96 93 90 87 85 83 81 79 77 76 76 77 78 79 80 80 81 81 81 81 81 79 78 78 77 76 75 73 71 70 69 69 68 67 64 63 65 67 65 65 63 56 51 50 49 48 48 46 44 46 47 46 44 43 41
63 63 64 68 73 77 81 87 91 92 92 92 92 92 93 94 94 95 97 98 100 101 102 103 103 103 103 103 101 99 96 93 90 88 86 83 81 80 79 79 80 81 82 84 85 86 85 84 84 84 83 81 80 80 80 79 77 76 74 73 72 72 71 70 68 66 67 70 69 68 68 64 56 54 53 51 51 50 47 47 48 49 47 46 44
66 65 65 69 73 76 81 88 93 93 92 91 91 91 92 94 95 96 97 99 101 103 104 103 102 102 101 100 99 99 98 96 93 91 88 86 85 84 84 85 87 88 89 90 90 89 88 87 86 85 84 83 82 81 81 80 80 78 77 77 75 74 74 73 72 71 70 72 74 72 71 70 64 59 56 55 54 53 51 49 49 52 51 49 47
70 68 65 66 68 70 76 84 89 89 86 84 85 87 89 91 93 96 98 100 103 104 104 103 101 100 100 100 101 101 100 99 96 94 92 92 92 92 93 93 94 95 95 94 93 92 91 90 89 88 86 85 84 83 83 82 82 82 81 81 80 78 77 77 76 75 74 75 77 77 75 74 72 66 61 59 58 57 55 53 51 54 55 52 50
74 72 69 69 72 75 80 86 90 90 89 88 90 93 95 96 99 102 104 105 105 105 105 104 103 103 104 105 105 105 103 101 98 97 96 97 98 99 99 98 98 99 99 98 96 95 94 93 91 90 88 86 86 85 85 84 84 85 85 85 84 82 81 81 80 80 79 79 80 81 80 78 77 74 68 64 62 60 59 57 54 55 57 56 53
79 78 77 77 79 83 87 92 95 97 98 98 99 100 102 103 104 106 107 108 108 107 107 107 107 109 110 110 109 108 106 103 101 101 101 101 102 101 101 101 101 101 101 100 98 97 95 93 91 89 87 86 85 84 84 85 86 87 87 88 88 87 85 85 84 83 82 82 84 85 84 82 81 80 75 69 66 65 64 61 58 57 59 59 56
83 83 85 86 87 89 93 96 99 100 101 102 102 103 104 105 106 107 109 111 112 111 110 110 112 115 115 114 112 111 109 107 106 105 105 104 103 102 102 102 101 100 99 98 97 95 94 91 88 87 85 83 82 81 82 83 85 86 88 90 91 90 89 88 87 86 84 85 86 88 88 86 85 84 81 75 71 69 67 65 62 60 61 61 59
88 88 89 91 92 94 96 98 100 101 102 103 104 104 105 107 108 110 112 115 116 115 114 115 118 118 117 114 113 112 112 112 110 109 108 106 104 102 101 100 99 97 96 95 94 93 90 87 84 83 83 81 80 80 80 81 82 83 85 87 89 90 90 90 89 88 87 86 87 90 91 90 89 88 85 80 76 74 71 68 65 64 63 63 62
93 93 93 95 96 98 99 101 102 103 104 105 106 106 108 110 112 114 116 118 119 119 118 119 120 119 117 115 115 115 115 115 113 111 109 106 103 100 98 96 95 95 93 92 91 90 87 83 81 80 79 78 78 78 77 77 77 78 80 82 84 86 88 89 90 90 89 88 88 91 93 93 93 91 89 84 80 77 75 71 68 66 65 65 65
98 98 98 99 100 101 102 104 105 107 107 108 109 110 112 114 116 117 119 120 121 122 121 121 120 120 120 119 118 118 117 115 113 111 108 104 100 97 94 93 92 92 91 90 89 87 84 81 78 77 75 75 75 75 75 75 75 75 76 78 79 81 83 85 87 88 90 91 90 91 94 95 95 94 91 88 83 80 78 76 72 68 67 67 67
102 103 103 104 105 105 106 108 109 111 111 112 113 115 116 118 119 120 121 121 123 124 123 121 121 121 122 122 120 118 116 113 110 108 105 102 98 94 92 91 90 89 89 88 87 85 82 79 76 74 74 74 73 73 73 73 73 73 73 74 75 76 78 80 82 84 87 89 91 91 93 95 96 95 93 91 86 82 80 79 76 71 68 69 70
106 107 108 109 110 110 110 111 112 113 114 115 116 118 120 121 121 121 121 121 123 123 123 122 122 122 121 119 117 115 111 108 106 104 102 100 96 93 91 88 87 87 87 86 85 83 80 77 74 73 73 73 73 73 72 72 71 71 70 69 70 71 72 74 77 80 82 84 87 89 92 95 96 96 94 91 88 84 82 82 80 75 70 70 72
110 111 112 113 113 114 114 115 115 116 116 117 118 120 122 122 122 121 121 121 122 122 122 122 120 118 116 114 111 108 106 104 102 100 98 97 95 93 90 87 86 85 85 84 82 80 77 76 74 72 72 73 74 73 71 69 68 67 66 65 65 66 67 69 72 75 77 78 81 85 88 92 94 96 95 91 88 86 84 83 83 79 73 71 73
114 114 114 115 116 117 117 118 118 119 119 120 120 121 123 124 123 122 122 121 121 120 120 118 116 113 110 107 105 103 102 100 99 97 95 94 93 91 89 87 85 84 82 81 79 77 76 75 73 72 72 73 73 72 69 66 63 62 61 61 62 63 64 66 68 71 72 73 76 80 83 86 90 94 94 91 88 87 86 85 85 83 77 72 73
117 117 117 118 118 119 120 120 121 121 122 122 122 122 123 123 122 121 120 119 117 116 114 112 110 107 105 103 101 99 98 97 96 94 93 91 90 89 88 86 84 82 80 79 77 76 75 74 73 73 72 72 71 68 65 62 59 58 58 58 59 60 61 64 66 67 68 70 72 76 79 81 84 88 90 90 89 88 87 86 86 86 81 74 73
119 120 120 120 120 120 120 120 120 120 120 121 121 120 120 119 117 116 115 113 111 110 108 106 104 102 100 99 97 95 94 94 93 91 90 88 87 86 85 84 82 80 78 76 75 74 73 73 73 72 71 70 68 64 61 58 55 55 55 55 55 55 58 62 64 66 67 68 70 73 76 78 80 83 85 86 87 88 88 87 87 88 84 77 74
120 119 119 118 118 117 117 116 116 115 115 115 115 115 114 113 112 111 109 107 106 105 103 101 99 98 96 95 93 91 90 89 89 88 87 86 85 83 82 80 79 77 76 75 74 73 73 73 72 71 68 67 64 62 59 56 53 52 52 51 50 52 56 61 64 65 67 67 69 71 74 75 77 80 81 82 84 87 88 88 89 89 87 80 76
117 116 114 113 113 112 112 111 111 110 110 110 109 109 109 109 108 107 105 103 101 100 98 96 94 93 92 90 87 86 84 84 85 85 84 84 83 81 80 78 77 76 75 74 74 73 73 72 70 67 65 62 61 59 57 54 52 51 50 48 47 51 57 61 63 64 65 66 68 70 72 73 74 77 79 78 81 85 88 89 90 90 89 84 78
112 112 111 110 109 108 107 107 106 106 105 105 105 105 106 106 105 103 101 99 97 95 93 91 89 87 86 84 82 81 80 79 80 81 82 82 81 80 79 77 76 75 74 74 73 72 71 69 67 64 61 59 57 57 56 54 51 50 48 46 47 51 56 58 59 60 62 64 66 69 70 70 71 74 76 76 78 83 87 90 90 90 90 87 81
108 108 108 107 106 105 104 103 102 101 101 102 102 102 102 102 101 100 97 95 93 92 91 89 86 83 82 81 80 79 78 78 78 78 79 79 79 79 78 76 75 74 72 72 70 69 68 66 64 61 59 57 56 55 54 53 50 48 46 46 48 52 54 54 54 56 58 61 64 67 67 68 69 72 74 74 76 81 86 90 91 91 93 90 83
106 105 104 103 102 101 99 98 97 97 97 98 98 98 99 98 97 95 93 91 89 88 87 86 83 81 80 79 78 78 78 77 77 76 77 77 78 77 75 74 74 72 69 67 66 65 64 63 61 60 59 57 55 53 51 50 48 46 45 47 49 51 51 52 52 53 55 57 61 64 65 66 67 70 73 74 76 80 86 90 91 93 95 92 86
103 101 100 99 97 96 94 93 92 92 92 93 94 94 95 94 92 91 89 87 86 84 83 82 80 78 77 77 77 77 76 76 75 75 76 76 75 75 74 73 71 68 64 63 63 63 62 61 60 59 57 55 53 51 49 48 47 46 46 47 48 49 50 50 50 51 53 55 58 60 63 64 66 69 73 74 77 81 86 90 93 95 97 94 88
98 97 96 95 94 93 91 90 88 87 88 88 88 89 89 88 87 87 86 84 82 80 78 77 76 75 74 74 74 75 75 74 74 74 74 74 73 73 72 69 66 64 61 60 60 60 60 59 58 57 55 53 52 50 48 48 48 48 47 47 48 48 48 48 48 50 51 54 56 59 62 63 65 69 73 75 78 81 86 90 93 96 98 95 89
93 93 92 92 91 90 88 87 85 84 83 82 82 82 82 82 82 82 82 80 78 75 74 73 72 71 70 70 71 73 73 73 72 72 72 71 70 69 67 66 64 63 60 58 57 57 57 57 56 55 53 52 50 49 48 47 48 48 48 47 47 46 46 47 48 49 50 53 55 58 61 63 65 69 73 76 78 81 85 90 94 97 99 95 90
89 88 88 87 86 84 84 83 82 80 79 77 77 77 77 77 77 77 76 75 73 71 71 70 69 67 67 68 69 70 70 70 70 69 68 67 65 65 65 65 64 62 59 57 55 54 54 54 52 51 51 50 49 47 46 46 46 46 47 47 46 45 46 48 49 49 50 53 56 59 62 64 66 70 74 76 78 81 86 91 94 98 100 96 92
85 83 82 81 79 78 77 77 76 76 75 74 73 72 72 71 71 71 70 69 68 67 66 66 65 65 65 66 66 66 67 67 66 65 64 63 64 64 64 63 62 59 57 56 54 51 50 49 48 48 48 48 48 46 45 45 45 44 45 45 45 45 47 48 50 50 51 53 57 61 64 65 66 70 73 76 79 82 87 92 95 99 100 97 94
80 78 77 75 74 73 72 71 71 71 71 71 70 69 68 67 66 65 64 63 62 62 62 62 63 63 63 63 63 63 63 63 62 62 62 63 63 63 62 61 59 57 56 53 50 46 45 45 45 45 45 45 46 46 46 47 47 46 46 45 44 45 47 49 50 50 51 54 58 62 64 64 66 70 74 77 80 83 88 93 97 100 100 97 95
75 74 72 71 70 68 67 67 66 66 67 67 67 66 65 64 63 61 59 58 57 58 58 59 60 60 60 60 59 58 58 59 59 60 61 62 62 61 59 58 57 55 52 48 44 42 44 44 44 44 44 45 45 47 48 49 50 50 49 47 46 46 47 49 50 52 54 56 60 63 65 65 67 71 74 77 80 84 89 94 99 102 101 98 97
71 70 68 67 65 64 64 63 63 63 63 63 62 62 61 60 58 57 56 54 54 54 55 56 57 56 56 55 54 53 54 55 58 59 60 59 58 56 56 55 54 51 48 43 39 41 45 46 45 45 45 45 45 46 48 50 51 52 52 52 49 48 49 50 51 54 56 57 60 65 66 66 68 72 75 78 81 86 91 96 100 103 101 99 99
66 65 64 63 62 61 61 60 60 60 59 58 58 58 57 55 53 53 52 52 52 52 52 52 52 52 50 50 50 51 52 53 55 57 56 55 55 54 53 52 50 47 44 41 41 44 46 46 46 46 44 42 43 45 48 50 51 53 55 54 52 50 51 53 54 56 58 58 62 66 67 67 70 73 76 79 82 87 92 97 102 103 101 100 101
61 60 60 59 58 57 57 57 56 55 54 53 53 53 52 51 49 49 49 49 49 49 48 47 47 46 45 45 47 49 51 52 52 52 52 52 52 52 51 50 48 46 45 44 45 48 48 47 47 46 42 39 40 43 46 47 50 54 56 56 54 52 52 54 57 59 60 60 62 66 68 69 72 75 78 81 84 89 94 99 102 103 102 102 102
56 55 55 54 53 52 51 50 49 48 47 46 46 46 47 46 45 44 44 45 45 45 44 43 42 41 42 43 44 46 48 48 48 49 49 50 50 50 49 49 49 49 49 48 48 49 48 47 47 45 41 38 39 41 43 45 49 54 55 56 55 53 52 55 59 60 59 60 63 67 69 71 73 77 80 82 85 90 96 100 103 104 104 104 104
49 49 48 47 46 44 43 43 42 41 41 40 40 40 40 40 39 39 39 40 40 40 39 38 38 39 40 41 41 42 44 45 46 47 48 49 49 49 50 52 53 52 51 49 47 47 47 46 45 43 40 38 39 40 41 44 49 53 55 56 56 54 52 54 57 58 59 60 63 67 70 72 75 78 80 83 86 92 97 101 103 104 105 106 104
42 42 41 40 39 37 37 36 35 35 34 33 33 33 33 33 34 35 35 35 35 35 35 34 34 36 38 39 38 39 41 43 45 47 48 49 49 50 51 53 52 50 47 45 44 44 44 44 43 41 39 38 38 38 39 42 47 51 54 56 55 53 51 52 55 58 59 60 64 68 72 74 76 79 81 84 89 94 98 101 103 105 106 107 105
37 36 35 34 33 31 31 30 29 28 27 27 27 27 28 29 30 31 31 32 32 32 33 33 33 34 35 35 36 37 40 43 45 45 45 46 47 48 48 47 45 44 43 42 41 41 41 41 40 40 39 38 38 37 38 40 45 50 53 54 53 51 49 50 54 57 58 60 65 69 72 75 77 79 82 86 91 96 100 103 105 107 108 108 106
32 30 29 28 27 26 25 24 23 22 22 22 23 24 25 26 27 28 28 29 29 30 31 32 34 34 33 33 34 37 40 42 42 42 42 43 44 45 44 43 43 42 41 40 38 37 36 36 37 38 38 38 38 37 36 39 44 49 51 50 48 47 47 50 54 56 58 60 65 69 73 75 77 80 84 88 93 98 101 104 107 110 110 109 108
27 25 24 23 22 21 20 19 18 19 19 20 21 22 23 24 25 25 26 26 27 28 29 31 33 34 35 35 36 37 38 39 39 39 40 41 42 41 41 41 42 42 40 37 35 33 32 31 32 34 36 37 36 35 35 38 43 47 48 46 43 43 45 49 53 54 56 60 66 70 73 76 78 81 86 91 96 100 103 106 109 111 111 109 109
22 20 19 18 17 16 16 16 17 17 18 19 20 21 22 23 23 24 24 25 26 27 28 29 31 33 35 37 37 37 38 40 40 41 41 41 40 39 39 39 39 39 38 35 32 29 28 27 28 30 32 34 34 34 33 36 40 44 44 42 40 41 44 48 50 52 55 61 67 71 73 76 79 83 89 94 98 101 104 108 111 112 111 110 109
17 15 15 15 14 14 15 16 16 16 17 18 19 20 21 22 22 23 24 24 25 26 27 28 29 32 35 36 37 38 41 43 43 43 43 42 41 41 41 39 37 36 34 32 29 27 25 24 24 26 29 31 32 31 31 33 37 40 41 40 39 40 44 47 49 50 55 62 68 71 73 77 82 86 92 97 101 103 107 111 113 113 111 111 111
13 12 13 14 14 14 15 15 16 16 17 18 19 20 21 21 22 23 23 24 24 25 26 26 28 31 34 36 38 40 43 44 44 44 44 44 43 43 41 38 35 33 31 28 26 25 23 21 21 23 25 28 29 29 29 32 35 38 38 38 38 41 44 46 47 50 56 63 68 70 74 79 84 89 95 100 103 106 110 114 115 114 113 113 113
11 12 13 14 14 14 15 16 16 17 18 19 20 20 20 21 22 23 23 23 24 24 25 26 27 30 33 36 38 40 41 42 43 43 42 43 43 41 38 35 32 30 28 25 24 23 21 19 19 20 22 24 26 27 28 31 35 36 36 37 40 42 43 44 46 51 58 65 68 71 76 82 87 92 98 102 105 109 113 116 116 115 115 115 114
12 13 14 14 14 15 16 16 17 18 19 19 20 20 20 20 21 22 23 23 23 23 25 27 29 30 31 34 37 38 38 38 40 40 39 40 39 37 33 31 29 27 25 23 21 19 17 16 15 17 19 21 24 26 27 31 34 35 35 38 41 42 43 44 48 54 60 65 68 72 79 85 90 95 101 104 108 112 116 118 117 116 116 116 114
13 14 14 14 15 16 16 17 18 19 19 20 20 20 19 20 20 21 21 21 22 23 25 28 30 31 32 34 36 37 36 35 35 36 36 36 35 33 30 27 26 24 22 20 18 16 14 13 13 15 16 18 21 24 26 29 32 35 36 39 41 43 44 46 51 57 62 65 69 75 82 87 92 98 103 106 111 116 118 119 117 117 117 116 114
13 14 14 15 15 16 17 18 19 20 20 20 20 19 18 18 19 20 20 20 21 23 26 29 31 32 33 34 35 36 35 33 32 32 32 32 32 30 27 25 23 21 19 17 15 12 11 12 13 14 15 17 20 22 24 28 32 36 38 39 41 44 47 50 55 59 63 66 72 79 85 89 94 100 105 109 114 118 119 119 118 117 116 115 113
14 15 15 16 17 17 18 19 20 21 21 20 20 18 17 17 18 18 19 20 21 23 26 30 31 32 32 32 33 34 33 31 29 28 29 29 29 27 24 22 20 18 16 14 11 10 10 11 13 14 15 16 19 21 24 28 32 35 37 39 41 45 49 53 56 59 63 68 76 82 87 92 97 103 107 113 117 120 120 119 119 118 116 114 112
15 16 16 17 18 18 19 20 21 21 21 20 19 18 17 17 18 18 18 19 21 23 26 29 32 32 31 30 29 30 30 28 26 25 25 25 25 24 21 18 16 14 12 10 8 7 8 10 11 13 15 17 20 22 26 28 31 33 36 39 42 46 49 53 56 59 64 71 78 84 89 95 100 106 111 117 120 121 121 120 119 118 116 114 111
16 17 17 18 19 19 20 20 21 21 20 19 19 18 18 17 17 18 18 19 20 23 25 27 29 31 30 28 26 25 26 25 23 22 21 21 21 19 17 15 13 11 9 6 5 5 7 8 10 13 16 19 21 24 27 29 29 31 35 40 45 48 50 52 55 59 66 73 80 85 90 96 103 109 116 120 122 122 121 120 119 117 115 112 109
16 17 18 18 19 19 20 20 20 20 20 19 19 19 18 17 17 18 17 18 20 23 25 25 26 27 27 26 24 22 22 21 20 20 20 19 18 16 14 12 10 8 6 4 2 3 5 8 11 14 18 21 23 26 29 29 30 33 38 43 47 49 50 51 55 61 69 75 81 86 92 99 106 113 119 122 123 123 122 120 118 115 112 109 106
16 17 18 18 19 19 19 19 20 20 20 19 19 19 18 17 17 17 17 18 20 23 24 25 24 23 24 24 23 21 20 19 19 18 18 18 17 14 12 10 8 6 4 2 1 2 5 8 11 16 20 23 25 28 30 32 34 38 43 46 48 50 52 55 60 67 74 79 83 89 95 103 110 117 122 123 123 122 120 118 115 112 109 106 103
16 17 17 18 18 19 19 19 20 20 20 20 20 20 19 18 17 16 16 17 19 22 23 24 23 22 21 21 21 20 18 17 17 16 17 17 16 13 11 9 8 6 4 3 3 4 6 9 13 17 22 26 28 30 32 34 37 42 46 49 51 53 57 61 67 73 79 83 87 93 101 109 116 121 123 124 123 121 118 115 112 109 107 104 101
Wind_Direction
281 280 277 275 276 277 279 280 280 280 281 280 280 281 282 282 283 284 285 285 286 286 287 288 288 288 289 289 289 289 289 288 288 288 288 287 286 285 284 283 282 281 281 280 279 278 277 276 275 274 272 271 269 267 266 263 261 259 257 256 255 253 251 249 248 250 254 256 256 255 250 243 242 244 245 248 248 243 236 234 234 232 230 230 230
281 281 281 281 281 281 282 282 281 281 281 281 280 280 281 281 281 281 283 284 284 286 287 287 287 287 287 287 287 287 287 287 287 286 286 286 285 285 284 283 282 281 281 281 280 278 277 275 274 272 271 269 267 266 265 263 261 258 256 254 253 252 250 248 245 245 249 252 252 253 252 245 238 239 241 243 245 244 237 232 232 232 229 228 228
282 281 282 283 284 284 284 284 283 283 282 282 282 283 283 283 283 283 283 283 284 285 285 285 285 286 286 286 287 288 288 288 287 287 287 287 286 286 285 284 284 283 283 282 280 278 276 274 272 271 270 268 267 266 265 263 261 259 257 254 252 250 248 247 245 242 244 248 249 248 250 247 239 235 236 238 241 243 239 233 230 231 230 226 226
282 282 283 285 285 285 285 285 285 284 283 283 284 284 284 285 284 284 284 284 284 284 284 284 284 285 286 287 288 289 289 289 289 289 289 289 288 288 287 287 286 285 284 282 280 278 276 275 273 272 270 269 267 266 265 264 262 260 258 256 252 250 247 245 244 242 240 244 247 246 246 246 242 235 231 233 236 239 239 234 228 228 230 226 224
280 282 284 284 282 280 281 282 282 283 284 284 284 284 285 285 285 284 285 285 285 285 285 285 286 287 288 288 289 289 289 289 290 291 291 291 291 290 289 289 288 286 284 282 280 279 277 276 275 273 272 271 269 267 266 264 262 260 258 256 253 250 248 245 242 240 238 239 243 244 243 243 243 237 230 228 231 234 236 234 228 225 228 227 223
282 282 281 278 276 274 275 276 277 279 281 281 282 283 284 284 284 285 285 285 285 285 286 287 289 289 289 289 288 289 289 289 290 290 291 291 290 290 289 289 288 286 285 283 281 280 279 277 276 275 273 272 270 268 267 265 262 260 258 255 253 251 248 245 242 239 237 236 238 241 241 240 240 239 233 227 226 229 232 233 229 224 225 226 223
282 281 279 277 276 275 275 275 276 278 279 280 281 282 282 283 284 284 285 285 285 286 287 289 290 289 289 288 289 289 289 290 290 291 290 289 289 288 289 288 287 286 284 283 282 281 280 278 277 277 275 274 272 270 268 265 262 260 258 256 253 251 249 247 244 241 238 236 236 238 239 238 238 238 235 229 224 225 229 231 229 224 222 224 223
281 281 280 280 279 279 278 278 279 280 281 281 282 282 282 283 283 284 284 285 286 287 289 289 289 288 288 288 289 290 291 291 291 290 290 289 289 289 289 288 286 285 284 283 282 281 281 280 279 279 277 275 274 271 268 265 262 260 258 256 254 252 250 248 246 243 240 237 236 236 237 237 237 238 237 232 225 223 226 228 228 224 220 221 222
282 282 281 281 281 281 281 281 281 282 282 282 282 283 283 283 283 283 284 285 286 287 288 288 287 286 288 289 290 291 291 291 291 290 290 290 289 289 288 287 286 285 284 283 283 282 282 282 281 280 278 277 274 271 267 265 262 260 258 257 255 253 251 249 247 245 242 239 236 236 236 236 237 237 237 234 228 224 224 226 227 224 220 219 220
282 282 282 281 281 281 281 281 281 281 281 281 281 281 281 281 282 282 283 284 285 286 286 286 286 288 289 290 291 291 291 291 291 291 290 290 289 289 288 287 287 285 284 283 283 283 283 282 281 279 277 276 274 272 269 266 264 261 259 257 255 254 252 250 248 246 244 241 238 237 236 236 236 237 238 236 231 226 224 224 225 224 220 217 218
282 282 282 282 281 281 281 281 281 281 280 280 280 280 280 280 281 281 282 283 284 285 285 286 288 289 290 290 290 291 291 291 291 291 290 290 290 289 288 287 286 285 284 284 283 283 283 282 280 278 277 275 274 272 271 268 265 262 260 258 256 254 253 251 249 247 244 242 239 237 237 236 235 235 237 237 234 229 225 224 225 224 220 216 216
283 283 282 282 282 281 281 281 281 280 280 280 280 280 280 280 280 281 282 283 283 284 286 287 288 288 288 289 289 290 290 290 290 291 290 290 290 289 288 286 285 284 284 284 283 283 283 282 281 280 278 277 275 273 271 269 266 264 262 260 257 255 253 251 249 247 245 243 241 238 237 236 235 234 235 236 235 230 226 224 224 224 221 216 214
283 283 283 283 282 282 282 281 281 281 281 281 280 280 280 280 281 281 282 283 283 284 285 286 287 287 287 288 288 289 290 290 290 290 290 290 289 288 286 285 284 284 283 283 284 284 284 283 282 281 280 278 275 273 271 269 268 266 264 262 260 257 254 252 249 247 245 243 241 239 237 236 235 234 233 234 234 231 227 224 223 224 222 216 213
283 283 283 283 283 283 282 282 281 281 281 280 280 280 281 281 281 282 282 283 284 284 285 286 286 287 287 288 288 289 289 289 289 289 289 289 288 287 285 284 283 283 283 283 283 284 284 283 282 281 279 277 275 273 272 270 269 267 266 263 261 258 255 252 249 247 245 243 241 240 237 235 234 233 232 231 232 230 226 223 222 223 222 217 213
284 284 283 283 283 283 283 282 282 282 281 281 281 281 281 282 282 283 283 284 284 285 285 286 286 287 287 288 288 288 288 288 288 288 287 287 286 285 284 283 283 283 283 284 284 284 284 283 282 280 278 276 275 274 273 271 269 268 266 263 260 257 255 252 250 247 245 242 240 239 237 235 234 233 231 229 228 228 225 222 220 221 222 218 213
284 284 283 283 283 283 282 282 282 282 282 281 281 281 281 282 283 283 283 284 284 284 285 285 286 286 287 287 287 287 287 287 287 286 285 284 284 283 283 283 283 283 284 284 284 283 282 282 281 279 278 277 276 276 274 272 270 268 265 262 259 257 254 252 249 247 244 241 239 238 237 235 233 232 230 227 225 225 224 221 219 220 221 218 213
283 283 283 283 282 282 281 281 280 280 280 281 281 281 281 282 282 283 283 283 283 284 284 285 285 285 285 286 286 286 286 285 285 284 283 282 282 282 282 282 283 283 283 282 282 282 281 281 280 279 279 278 278 276 274 273 270 268 265 261 258 256 253 250 247 245 242 240 237 236 235 233 232 231 229 225 222 222 221 219 217 218 220 218 213
283 282 282 281 281 280 280 280 280 279 280 280 280 281 281 282 282 282 282 282 283 283 284 284 285 285 284 284 284 284 284 283 283 282 282 281 281 281 282 283 283 283 282 282 282 281 281 280 280 280 279 279 278 277 276 274 271 268 264 260 256 252 249 246 244 242 240 238 236 235 233 231 229 229 227 223 219 218 218 217 215 215 217 217 212
282 282 281 280 280 279 279 279 279 280 280 280 280 281 281 281 281 282 282 282 283 283 283 283 283 283 283 283 283 283 282 281 281 281 281 281 282 282 283 283 283 282 282 281 281 281 281 281 281 280 278 277 277 277 276 274 271 267 262 257 252 249 245 243 241 239 238 237 235 234 232 230 227 227 225 221 217 215 215 214 213 213 215 216 212
282 281 281 280 280 279 279 279 279 280 280 280 280 280 280 281 281 282 282 283 283 283 283 283 283 283 283 284 283 282 281 280 280 280 281 281 282 282 282 282 281 281 280 280 280 281 281 281 280 279 278 278 277 276 275 272 269 265 261 256 252 249 245 242 239 237 236 235 234 233 232 229 226 225 223 219 215 212 212 212 210 210 212 214 210
281 281 280 280 280 280 280 280 280 280 279 279 279 279 279 280 280 281 282 283 283 283 283 284 284 284 284 284 284 283 282 281 280 280 281 281 280 280 280 280 279 279 279 280 281 281 281 281 280 280 279 278 276 274 272 269 266 262 259 255 251 248 245 242 238 235 234 233 232 232 231 228 224 223 221 217 212 210 209 209 208 207 210 212 209
281 280 280 280 280 280 280 279 279 278 278 278 278 278 279 279 280 281 281 282 282 282 282 283 284 284 284 284 283 283 282 282 281 281 281 280 279 279 278 278 278 279 280 281 281 281 280 280 279 279 278 277 275 271 268 265 262 259 255 251 248 246 243 240 236 233 231 230 229 229 229 226 223 220 219 215 210 207 206 206 205 205 208 210 207
281 281 281 281 281 280 279 279 278 278 277 277 277 277 278 279 279 280 280 280 281 281 281 282 282 282 282 282 281 281 281 281 281 280 279 279 278 278 277 278 279 280 281 281 280 280 279 279 279 278 277 275 272 268 265 262 259 256 252 249 246 243 241 238 234 231 228 227 226 226 226 224 220 218 217 213 208 205 203 203 202 202 206 209 206
281 281 281 281 281 281 280 279 278 278 277 276 276 277 277 278 279 279 279 280 280 280 280 280 280 280 280 280 280 280 279 279 279 278 277 277 277 277 279 280 281 281 280 279 279 279 279 279 278 277 274 272 269 267 264 261 258 255 251 247 244 242 239 237 233 229 226 225 223 222 222 220 217 215 214 211 207 203 201 200 200 200 204 207 204
281 281 281 281 281 281 280 280 279 278 277 277 277 277 277 277 278 278 278 279 280 280 280 279 279 278 278 278 277 277 277 277 276 276 276 277 278 280 281 282 281 281 280 280 280 280 279 278 276 274 273 272 270 268 265 262 258 255 251 247 243 240 238 235 231 226 224 222 221 220 219 217 214 213 212 209 206 202 199 198 198 199 202 204 202
281 281 281 280 280 280 280 280 280 280 279 278 278 277 276 276 276 277 277 278 278 279 278 278 278 277 276 275 274 274 275 275 275 276 278 280 281 282 281 281 281 282 283 283 281 279 277 275 275 275 275 274 272 270 268 264 260 256 252 247 242 237 234 233 230 225 220 219 218 217 216 214 211 210 210 207 204 200 198 197 196 198 201 202 200
282 281 281 280 280 280 280 280 280 280 280 279 278 277 276 276 276 276 276 276 277 277 277 276 276 275 274 274 274 274 275 276 278 279 281 282 281 280 280 281 283 284 284 282 280 278 278 278 277 276 275 274 273 271 269 266 262 258 253 248 242 237 233 231 229 224 219 216 215 215 214 211 208 208 207 205 201 198 196 195 195 197 199 200 198
281 281 281 281 281 281 280 280 280 279 279 278 278 277 277 276 276 275 275 276 275 275 275 274 274 274 274 274 275 276 277 279 280 281 281 280 280 280 282 284 284 284 282 281 281 281 281 279 277 275 273 272 271 270 268 266 263 258 252 246 240 236 232 229 228 224 219 214 213 213 213 210 206 205 205 203 200 197 195 194 194 196 198 197 196
282 282 282 282 282 282 281 280 279 278 277 277 276 276 276 276 276 276 276 276 275 274 273 272 272 273 273 274 276 278 279 280 280 279 279 279 280 282 284 285 284 284 283 283 284 284 283 280 278 276 273 269 267 265 263 261 258 255 251 245 238 232 229 228 226 224 220 214 211 211 211 208 204 203 203 202 198 195 194 192 192 195 197 195 194
283 283 283 282 282 281 280 279 278 277 276 276 276 276 275 275 276 276 276 275 273 272 271 271 272 273 275 276 277 278 278 278 278 278 279 281 283 284 285 285 285 286 286 286 286 286 284 282 278 275 270 266 262 259 256 253 252 250 248 244 237 230 226 224 223 223 220 214 209 209 208 206 203 202 201 200 197 194 192 191 191 194 195 193 192
282 282 282 281 281 280 279 278 277 277 276 276 276 276 275 275 275 275 274 272 271 270 270 271 273 275 277 278 278 278 277 276 277 279 282 285 286 287 288 288 289 290 289 290 290 289 286 282 278 274 267 261 256 252 249 247 246 245 245 243 238 231 224 221 220 220 219 214 209 207 206 203 201 200 199 198 195 192 191 190 191 192 193 192 191
281 281 281 280 280 279 279 278 277 277 276 276 275 274 274 273 272 271 271 271 271 271 271 272 274 276 277 277 277 277 278 279 280 283 286 287 288 289 291 292 293 293 293 294 293 291 286 282 279 274 266 258 251 246 243 242 241 242 242 241 239 233 225 221 219 218 216 212 208 206 204 202 200 199 198 196 194 191 190 189 190 191 191 190 191
280 280 280 280 279 279 278 278 277 277 276 274 273 272 271 271 270 270 270 271 271 272 273 274 275 276 275 275 276 277 280 283 286 287 288 288 290 292 294 295 296 296 296 294 292 288 284 280 277 273 266 258 251 245 241 238 238 239 240 240 239 235 227 222 220 218 214 210 206 204 203 200 198 197 196 194 192 189 188 189 189 189 189 189 190
280 279 279 279 278 278 277 277 276 275 274 272 271 270 270 270 269 269 269 269 271 273 275 277 278 278 278 279 280 283 285 286 287 288 289 291 294 296 296 296 296 295 294 291 288 285 282 278 274 271 265 259 252 247 242 237 235 236 237 238 238 235 228 223 221 218 214 208 204 202 201 199 196 195 194 192 190 188 188 188 188 188 188 188 189
278 277 277 278 278 278 276 275 274 272 271 271 270 269 268 268 268 268 269 270 271 273 274 275 276 278 280 282 284 285 286 286 286 288 290 292 294 294 294 294 293 292 291 290 287 285 281 278 274 270 265 259 254 249 243 238 235 235 236 236 236 234 229 224 220 218 214 207 202 201 200 198 195 193 192 190 189 187 187 187 187 186 186 187 188
276 276 277 277 277 275 273 271 271 270 269 268 267 265 265 266 267 268 270 272 274 276 277 277 277 278 280 282 284 284 284 285 286 288 290 292 293 293 294 294 294 294 293 291 289 284 280 276 273 270 265 260 255 249 243 238 235 234 235 235 234 232 228 222 219 217 213 206 201 199 198 196 193 191 190 189 187 186 186 186 185 185 186 187 187
274 275 274 273 271 270 269 269 268 267 265 264 263 263 264 265 267 269 271 274 277 279 281 283 283 284 285 286 286 285 285 287 289 292 294 297 299 300 300 301 300 298 296 293 289 283 278 273 270 267 264 260 256 249 242 236 233 233 234 234 232 228 223 220 218 216 211 205 200 198 197 195 191 189 187 187 186 185 185 184 184 184 185 186 186
272 271 268 266 265 265 266 266 264 261 260 260 261 261 263 264 267 270 273 276 279 281 283 284 286 288 291 291 291 291 292 294 297 299 302 304 305 305 305 304 303 300 297 293 289 283 277 271 266 263 261 258 254 248 240 233 231 231 232 232 229 223 218 216 215 213 208 203 199 197 195 193 189 186 185 185 185 184 184 183 183 184 185 185 185
268 265 263 262 262 263 262 260 257 257 257 258 259 261 263 266 269 272 275 277 279 281 283 284 287 290 293 295 297 300 303 305 306 309 310 311 310 310 309 307 304 300 297 295 291 286 279 270 262 257 255 253 250 245 237 231 229 230 230 229 224 217 214 213 212 210 204 200 198 196 194 190 186 184 183 183 183 183 182 181 182 184 184 184 185
262 260 259 259 259 258 256 254 253 254 256 257 259 262 265 268 271 273 275 277 279 280 281 284 289 292 295 299 303 308 310 311 312 315 316 315 314 314 313 310 306 302 298 296 293 288 281 271 260 252 248 246 244 240 233 227 225 226 226 223 218 212 209 209 208 204 200 198 197 195 191 187 184 182 182 182 182 182 181 180 182 183 184 184 185
254 253 253 253 253 252 251 251 252 253 255 257 260 263 266 269 271 272 274 275 276 279 282 287 292 296 300 304 309 312 313 313 315 316 316 314 314 314 312 310 307 303 299 297 293 288 280 270 257 247 241 238 238 234 227 221 220 220 219 216 211 208 206 205 202 199 196 195 196 193 188 185 182 181 181 181 181 181 180 180 182 183 183 183 185
243 244 246 247 248 247 248 249 250 252 255 258 261 264 266 268 269 270 271 273 275 279 285 290 294 298 303 308 311 313 313 314 314 314 313 312 311 312 311 309 306 303 300 297 292 285 276 264 252 243 237 234 232 229 222 217 215 214 212 208 205 204 202 200 196 193 192 194 194 190 185 183 181 180 180 180 180 179 179 180 182 182 183 184 185
233 237 241 243 244 245 248 250 251 253 255 257 260 262 263 264 265 267 269 273 278 284 290 295 298 301 307 311 313 314 315 314 313 311 311 311 311 312 312 309 307 304 301 297 290 280 270 260 251 243 236 231 229 225 220 215 211 208 205 202 200 199 197 193 190 189 191 192 191 187 183 182 180 179 179 179 178 178 179 180 182 182 183 184 186
229 234 237 240 242 245 247 249 251 253 254 255 257 258 258 259 261 265 270 276 282 289 294 299 302 307 313 316 316 316 316 315 313 312 313 314 314 315 315 312 309 306 301 296 287 277 268 263 255 245 236 229 225 220 215 210 205 200 198 198 197 194 190 187 186 187 189 189 187 184 182 181 179 178 178 178 177 177 179 180 181 182 183 184 186
230 234 237 239 242 244 246 247 248 250 251 252 253 254 253 253 257 263 271 278 286 293 298 302 306 311 316 319 318 316 317 317 315 315 317 319 319 319 318 315 310 306 302 295 285 275 269 264 254 244 234 225 218 212 206 203 199 195 192 193 193 190 186 183 184 186 187 186 183 182 181 180 178 177 177 176 176 177 179 180 181 182 183 184 186
232 236 238 239 241 242 242 243 245 246 248 249 249 247 244 246 252 261 269 278 287 295 300 304 308 313 318 319 317 315 316 318 319 321 324 325 323 321 319 315 310 307 302 295 285 275 266 257 245 235 225 215 207 201 196 194 193 190 188 188 188 186 183 182 183 184 184 183 181 181 180 178 177 176 175 175 176 177 179 180 181 182 183 185 187
232 235 237 238 239 240 240 240 242 243 245 245 244 240 237 240 249 257 266 277 287 295 300 305 310 314 317 318 317 315 316 319 323 326 329 329 325 322 320 318 313 310 305 297 287 275 260 245 232 222 212 200 193 189 186 184 184 185 184 182 181 181 181 182 182 182 181 181 181 180 178 177 176 175 174 174 176 177 179 180 181 182 184 186 187
234 236 237 237 238 239 239 239 241 243 243 243 239 234 232 236 246 256 266 278 287 294 299 305 310 314 316 317 316 314 315 318 322 327 331 333 330 326 324 322 319 315 310 303 292 271 251 231 214 205 196 186 181 179 176 173 174 177 178 177 176 177 179 180 180 179 179 180 180 179 177 176 174 173 173 174 175 177 179 181 182 183 184 186 187
235 237 238 239 239 239 240 241 242 243 242 240 236 230 228 233 245 256 268 280 288 294 301 307 312 314 315 316 317 317 317 320 325 331 338 341 338 334 331 331 331 328 322 318 302 255 233 214 198 190 182 176 173 171 166 163 165 170 173 174 174 174 175 176 176 176 178 179 179 177 176 174 173 173 173 174 176 177 179 181 182 183 185 186 187
235 238 239 240 241 242 242 242 244 244 243 240 234 228 225 231 243 256 269 281 290 298 305 310 314 316 318 320 323 324 326 329 334 341 347 349 348 344 344 346 349 348 347 8 68 200 207 197 187 180 173 168 166 163 159 158 162 167 171 172 171 170 171 172 173 175 177 178 177 175 174 173 173 173 173 174 176 178 180 181 182 183 184 186 186
237 240 241 242 244 245 244 244 245 246 246 242 235 227 223 228 241 255 269 282 291 300 307 312 317 321 324 325 326 328 331 336 341 348 355 358 358 357 360 6 12 15 25 64 103 151 183 186 180 174 168 162 158 157 155 157 162 168 171 171 169 169 170 171 172 175 176 175 175 174 173 172 172 173 173 175 177 179 180 180 181 183 184 185 186
Height
10672 10671 10671 10670 10667 10663 10659 10656 10654 10653 10653 10652 10650 10647 10644 10642 10640 10637 10635 10632 10629 10628 10627 10625 10623 10622 10621 10619 10618 10618 10618 10617 10617 10617 10617 10617 10617 10617 10617 10616 10616 10616 10615 10614 10613 10613 10613 10613 10611 10609 10609 10611 10611 10612 10613 10615 10618 10621 10624 10626 10628 10631 10633 10637 10641 10640 10634 10633 10636 10638 10645 10653 10656 10658 10662 10663 10666 10669 10671 10673 10676 10679 10682 10686 10689
10666 10665 10664 10663 10660 10656 10652 10646 10642 10641 10641 10639 10638 10635 10633 10632 10630 10627 10624 10621 10618 10617 10615 10613 10612 10611 10609 10607 10606 10605 10605 10605 10605 10605 10605 10604 10604 10604 10604 10604 10603 10603 10602 10601 10599 10598 10598 10598 10597 10595 10595 10597 10598 10597 10598 10600 10603 10607 10610 10613 10616 10618 10621 10624 10630 10632 10628 10624 10627 10628 10631 10641 10648 10650 10653 10657 10659 10662 10665 10667 10670 10673 10676 10680 10683
10661 10660 10659 10656 10652 10648 10643 10635 10629 10628 10628 10626 10624 10623 10620 10619 10618 10616 10613 10610 10607 10605 10602 10601 10600 10598 10596 10593 10591 10590 10590 10590 10590 10591 10591 10591 10591 10591 10590 10589 10589 10588 10587 10585 10583 10581 10581 10582 10581 10580 10581 10583 10584 10584 10585 10586 10589 10593 10596 10599 10603 10605 10607 10612 10617 10622 10621 10616 10616 10619 10620 10626 10636 10641 10644 10649 10651 10654 10657 10661 10664 10666 10669 10674 10678
10655 10656 10657 10653 10648 10642 10634 10623 10616 10614 10614 10614 10613 10611 10608 10606 10604 10602 10600 10597 10595 10591 10589 10589 10588 10586 10583 10580 10578 10576 10574 10574 10575 10575 10576 10576 10576 10575 10574 10574 10572 10571 10569 10568 10566 10565 10566 10566 10566 10566 10567 10568 10569 10570 10571 10572 10574 10578 10581 10583 10587 10590 10593 10598 10603 10608 10611 10608 10605 10608 10610 10613 10622 10630 10635 10640 10643 10646 10649 10653 10657 10659 10662 10667 10671
10648 10651 10655 10651 10642 10634 10624 10613 10604 10602 10603 10603 10602 10600 10597 10595 10592 10589 10587 10585 10582 10578 10574 10575 10574 10572 10570 10567 10565 10563 10562 10562 10562 10562 10561 10560 10560 10559 10558 10557 10555 10554 10553 10552 10551 10550 10550 10550 10550 10550 10552 10553 10554 10555 10556 10558 10558 10561 10564 10567 10570 10574 10578 10583 10588 10592 10598 10598 10594 10595 10600 10603 10607 10615 10624 10630 10634 10638 10641 10644 10648 10652 10655 10659 10664
10637 10641 10644 10640 10630 10622 10615 10605 10596 10593 10594 10594 10593 10590 10587 10584 10580 10577 10574 10571 10568 10565 10561 10560 10559 10557 10554 10551 10550 10550 10549 10549 10550 10549 10548 10546 10544 10542 10541 10540 10539 10537 10535 10534 10534 10533 10533 10534 10534 10535 10536 10537 10538 10539 10539 10540 10541 10542 10545 10548 10552 10557 10561 10565 10571 10577 10582 10585 10583 10582 10587 10591 10594 10600 10610 10619 10624 10628 10632 10635 10640 10644 10647 10652 10657
10626 10626 10624 10622 10617 10611 10606 10597 10590 10587 10585 10584 10582 10580 10577 10573 10569 10565 10560 10556 10554 10553 10550 10547 10545 10541 10537 10536 10536 10535 10534 10535 10536 10535 10534 10532 10530 10528 10525 10524 10522 10520 10518 10516 10516 10515 10515 10516 10517 10518 10519 10520 10520 10521 10521 10522 10523 10524 10526 10529 10533 10538 10544 10548 10553 10560 10567 10571 10571 10570 10573 10579 10582 10586 10595 10606 10613 10617 10621 10626 10630 10635 10640 10644 10650
10613 10612 10607 10605 10603 10599 10593 10587 10582 10578 10575 10572 10570 10568 10564 10560 10557 10552 10547 10542 10539 10539 10539 10536 10531 10525 10522 10522 10522 10520 10519 10520 10520 10518 10517 10516 10514 10513 10510 10507 10506 10504 10502 10500 10498 10498 10498 10498 10500 10500 10501 10502 10503 10503 10504 10504 10505 10507 10508 10511 10515 10520 10526 10531 10536 10543 10551 10556 10558 10558 10559 10565 10570 10573 10581 10592 10601 10606 10611 10617 10622 10626 10632 10637 10642
10599 10599 10596 10592 10588 10584 10579 10574 10570 10566 10562 10559 10556 10553 10550 10546 10542 10539 10535 10529 10524 10524 10525 10521 10514 10509 10509 10510 10509 10506 10504 10503 10502 10501 10500 10499 10498 10497 10494 10491 10488 10487 10486 10484 10482 10481 10481 10482 10484 10484 10484 10485 10486 10486 10486 10487 10488 10491 10492 10493 10498 10502 10507 10513 10519 10525 10533 10541 10545 10545 10546 10551 10556 10561 10568 10578 10589 10595 10600 10607 10612 10616 10623 10629 10635
10585 10584 10583 10580 10576 10572 10567 10562 10557 10553 10550 10546 10543 10540 10537 10533 10529 10525 10522 10517 10512 10510 10510 10505 10498 10496 10497 10496 10494 10492 10489 10486 10484 10483 10481 10481 10480 10479 10477 10474 10471 10470 10469 10469 10467 10466 10466 10467 10468 10469 10469 10469 10469 10469 10469 10471 10472 10474 10476 10478 10481 10485 10489 10495 10501 10507 10514 10523 10529 10531 10533 10537 10542 10547 10555 10564 10575 10584 10590 10597 10603 10607 10614 10621 10627
10570 10568 10567 10565 10562 10559 10555 10550 10545 10540 10538 10535 10531 10527 10524 10520 10516 10512 10508 10504 10499 10495 10493 10491 10487 10484 10482 10480 10479 10477 10474 10471 10469 10466 10463 10462 10462 10462 10461 10459 10456 10454 10453 10453 10452 10451 10452 10453 10453 10454 10454 10454 10453 10453 10453 10454 10456 10458 10460 10463 10466 10469 10473 10477 10482 10489 10495 10503 10511 10515 10518 10522 10527 10534 10542 10550 10561 10572 10580 10587 10593 10599 10606 10613 10619
10554 10552 10550 10547 10545 10544 10540 10536 10532 10527 10523 10520 10516 10512 10508 10505 10501 10498 10495 10491 10485 10480 10477 10477 10475 10472 10468 10466 10465 10462 10460 10457 10454 10450 10447 10446 10445 10445 10445 10444 10442 10440 10438 10437 10437 10437 10438 10439 10439 10439 10438 10438 10437 10438 10438 10439 10440 10443 10446 10449 10452 10454 10458 10461 10465 10470 10476 10483 10491 10499 10503 10506 10511 10519 10528 10537 10547 10560 10570 10577 10583 10590 10597 10604 10611
10538 10535 10533 10529 10526 10526 10523 10519 10516 10512 10508 10504 10500 10495 10491 10488 10484 10482 10480 10477 10472 10467 10464 10462 10460 10458 10455 10453 10450 10448 10446 10442 10438 10435 10432 10431 10429 10429 10429 10429 10428 10426 10424 10423 10423 10424 10424 10425 10425 10425 10423 10422 10422 10423 10424 10425 10426 10429 10433 10435 10438 10440 10442 10445 10448 10452 10459 10466 10473 10480 10486 10490 10495 10503 10513 10524 10535 10548 10559 10567 10573 10580 10588 10595 10602
10521 10518 10516 10511 10507 10506 10504 10500 10497 10494 10490 10487 10483 10478 10473 10469 10467 10465 10464 10461 10457 10453 10450 10447 10445 10443 10441 10438 10436 10434 10431 10427 10424 10421 10419 10417 10415 10413 10414 10414 10413 10412 10411 10410 10410 10411 10410 10410 10411 10411 10409 10408 10408 10409 10410 10413 10414 10416 10419 10422 10424 10425 10427 10430 10433 10437 10443 10450 10457 10462 10467 10474 10480 10487 10498 10511 10523 10534 10547 10556 10562 10569 10578 10586 10593
10502 10500 10498 10494 10489 10486 10483 10480 10476 10473 10469 10467 10464 10460 10455 10451 10449 10447 10445 10443 10441 10437 10434 10431 10429 10428 10426 10423 10422 10420 10417 10413 10410 10408 10406 10404 10401 10399 10399 10399 10399 10399 10398 10397 10397 10397 10396 10396 10396 10397 10397 10396 10395 10395 10397 10400 10402 10404 10406 10408 10409 10411 10413 10416 10418 10423 10429 10436 10441 10446 10450 10458 10465 10471 10482 10499 10511 10521 10533 10544 10551 10559 10568 10577 10585
10483 10481 10478 10476 10472 10468 10464 10461 10457 10453 10449 10446 10444 10441 10438 10435 10433 10431 10429 10427 10424 10422 10420 10417 10416 10414 10412 10409 10408 10407 10404 10400 10397 10396 10393 10390 10388 10385 10384 10384 10384 10385 10386 10385 10385 10384 10383 10383 10383 10383 10384 10383 10383 10383 10384 10386 10389 10392 10394 10395 10396 10398 10400 10402 10404 10408 10414 10420 10426 10430 10435 10442 10450 10456 10467 10484 10498 10508 10519 10532 10541 10549 10558 10568 10578
10465 10463 10460 10456 10453 10449 10446 10442 10439 10436 10433 10429 10427 10424 10422 10420 10418 10415 10414 10412 10410 10407 10406 10404 10403 10401 10399 10396 10394 10394 10392 10387 10384 10382 10379 10376 10374 10372 10371 10370 10371 10372 10373 10372 10371 10371 10370 10370 10370 10371 10372 10371 10370 10370 10371 10373 10376 10379 10380 10382 10384 10386 10387 10387 10390 10394 10400 10405 10411 10416 10420 10428 10437 10443 10453 10470 10484 10495 10507 10520 10530 10538 10548 10559 10570
10447 10444 10441 10437 10434 10430 10426 10424 10422 10420 10418 10415 10412 10409 10407 10404 10402 10399 10398 10398 10396 10394 10392 10391 10390 10387 10385 10384 10382 10381 10380 10375 10370 10367 10364 10361 10359 10359 10358 10358 10359 10359 10358 10357 10357 10357 10357 10357 10357 10359 10360 10359 10357 10357 10358 10360 10363 10366 10367 10370 10373 10374 10373 10372 10376 10381 10387 10393 10398 10403 10408 10415 10424 10431 10440 10456 10470 10482 10495 10507 10518 10527 10537 10549 10560
10426 10423 10420 10418 10415 10411 10409 10407 10406 10404 10402 10399 10396 10394 10391 10388 10386 10384 10383 10382 10382 10381 10379 10378 10377 10375 10372 10372 10370 10368 10366 10362 10357 10353 10349 10346 10345 10345 10346 10346 10347 10346 10345 10345 10345 10345 10345 10346 10346 10347 10347 10346 10346 10345 10345 10348 10351 10353 10355 10358 10361 10360 10358 10358 10364 10370 10376 10382 10387 10392 10397 10404 10412 10420 10429 10443 10458 10470 10482 10494 10505 10517 10528 10538 10549
10406 10403 10399 10397 10395 10394 10393 10392 10390 10388 10386 10384 10381 10378 10375 10372 10370 10368 10368 10367 10367 10366 10365 10363 10363 10362 10359 10357 10356 10353 10350 10347 10343 10339 10336 10335 10333 10333 10333 10334 10335 10334 10334 10334 10334 10334 10334 10335 10334 10334 10334 10334 10334 10334 10334 10336 10339 10341 10343 10346 10348 10345 10343 10348 10355 10361 10367 10372 10377 10381 10387 10394 10403 10410 10419 10433 10447 10458 10470 10481 10494 10507 10517 10526 10538
10387 10384 10381 10378 10377 10377 10376 10375 10374 10372 10370 10367 10365 10362 10359 10357 10356 10354 10354 10354 10353 10352 10350 10347 10347 10347 10345 10342 10340 10337 10334 10331 10329 10327 10325 10324 10322 10321 10322 10323 10322 10322 10323 10324 10324 10324 10324 10323 10322 10321 10321 10321 10322 10323 10323 10324 10326 10329 10332 10333 10333 10331 10333 10340 10346 10351 10357 10362 10367 10371 10377 10385 10393 10401 10409 10422 10435 10446 10457 10469 10483 10496 10505 10514 10527
10367 10365 10364 10362 10362 10361 10359 10358 10357 10356 10354 10351 10349 10347 10344 10342 10342 10341 10340 10340 10339 10338 10336 10334 10333 10333 10331 10328 10326 10323 10319 10317 10317 10316 10314 10311 10310 10309 10310 10311 10310 10311 10314 10315 10314 10313 10312 10310 10309 10308 10308 10309 10311 10312 10313 10313 10315 10318 10319 10320 10320 10321 10325 10331 10336 10342 10348 10352 10357 10362 10368 10375 10384 10391 10399 10410 10422 10433 10445 10457 10471 10485 10493 10503 10517
10349 10348 10346 10345 10344 10343 10342 10341 10340 10340 10338 10336 10335 10333 10330 10328 10328 10328 10327 10326 10326 10325 10324 10322 10321 10321 10319 10316 10313 10310 10308 10306 10305 10304 10302 10300 10299 10298 10298 10299 10300 10301 10304 10305 10303 10300 10299 10298 10297 10297 10298 10299 10299 10300 10301 10302 10304 10306 10307 10308 10310 10313 10316 10322 10327 10333 10338 10342 10347 10353 10358 10365 10373 10380 10388 10399 10410 10421 10432 10445 10459 10473 10482 10492 10507
10334 10332 10329 10328 10326 10324 10324 10324 10324 10324 10323 10321 10320 10319 10317 10316 10315 10313 10312 10312 10312 10312 10312 10310 10309 10308 10307 10305 10302 10298 10296 10294 10293 10292 10291 10290 10289 10288 10288 10289 10290 10290 10292 10292 10290 10288 10287 10287 10286 10287 10287 10287 10287 10288 10290 10292 10292 10294 10296 10298 10301 10305 10309 10314 10318 10323 10328 10333 10338 10342 10347 10354 10363 10370 10377 10388 10399 10410 10422 10434 10449 10462 10472 10484 10499
10319 10316 10314 10312 10310 10309 10308 10308 10307 10308 10308 10307 10307 10306 10305 10303 10302 10300 10299 10299 10299 10300 10299 10297 10297 10297 10296 10294 10291 10287 10284 10284 10283 10281 10281 10281 10281 10279 10278 10278 10276 10276 10277 10279 10279 10279 10278 10277 10276 10275 10275 10275 10276 10277 10279 10281 10282 10283 10286 10289 10293 10298 10301 10305 10308 10313 10319 10323 10327 10332 10338 10345 10353 10359 10367 10377 10389 10403 10415 10427 10440 10453 10463 10476 10491
10304 10301 10299 10297 10296 10295 10295 10293 10293 10293 10293 10293 10293 10293 10292 10291 10290 10288 10287 10287 10288 10288 10287 10286 10285 10285 10284 10282 10279 10277 10275 10274 10273 10272 10272 10272 10271 10269 10266 10265 10263 10263 10265 10267 10268 10268 10268 10267 10266 10265 10264 10264 10264 10266 10268 10270 10271 10274 10276 10280 10284 10289 10292 10294 10298 10303 10309 10313 10317 10322 10327 10334 10342 10349 10358 10369 10382 10396 10407 10419 10432 10443 10454 10468 10483
10288 10286 10285 10284 10283 10283 10282 10281 10280 10280 10279 10279 10279 10278 10278 10278 10278 10277 10276 10277 10277 10277 10276 10276 10274 10273 10272 10270 10268 10267 10266 10264 10263 10263 10263 10262 10259 10256 10254 10253 10253 10254 10255 10256 10256 10257 10257 10257 10255 10255 10255 10254 10255 10257 10258 10259 10261 10264 10266 10270 10275 10279 10282 10285 10289 10294 10300 10304 10308 10312 10317 10324 10333 10341 10351 10362 10374 10386 10397 10409 10423 10435 10446 10460 10474
10274 10273 10273 10272 10271 10271 10271 10270 10269 10268 10267 10266 10265 10265 10266 10266 10266 10266 10267 10267 10268 10267 10265 10264 10263 10262 10261 10260 10259 10258 10257 10255 10255 10254 10252 10249 10247 10245 10244 10244 10245 10245 10244 10244 10245 10246 10246 10245 10244 10244 10245 10246 10247 10248 10249 10250 10251 10253 10255 10259 10264 10269 10273 10276 10281 10286 10291 10296 10299 10304 10310 10318 10327 10334 10343 10353 10365 10377 10388 10401 10415 10427 10438 10451 10465
10262 10261 10261 10261 10260 10260 10259 10259 10257 10256 10255 10254 10253 10254 10254 10255 10255 10256 10257 10257 10257 10256 10255 10254 10252 10252 10252 10251 10251 10251 10250 10247 10245 10243 10241 10239 10237 10237 10236 10235 10234 10233 10232 10233 10235 10236 10233 10232 10233 10234 10235 10237 10238 10240 10240 10240 10241 10242 10244 10248 10253 10258 10263 10268 10273 10277 10281 10285 10290 10296 10303 10312 10320 10327 10336 10347 10358 10369 10381 10393 10406 10418 10431 10445 10458
10251 10251 10251 10250 10249 10249 10248 10247 10246 10245 10244 10244 10243 10243 10244 10245 10246 10246 10246 10247 10246 10245 10244 10243 10243 10243 10243 10243 10244 10244 10242 10238 10234 10232 10231 10230 10230 10229 10227 10225 10223 10222 10222 10223 10225 10225 10222 10221 10222 10222 10224 10226 10228 10229 10229 10230 10231 10233 10234 10237 10242 10247 10252 10258 10263 10267 10271 10277 10283 10288 10295 10305 10313 10320 10329 10340 10351 10361 10373 10385 10397 10410 10424 10439 10451
10241 10241 10240 10239 10239 10238 10237 10236 10235 10235 10235 10235 10234 10234 10234 10236 10237 10236 10235 10235 10235 10235 10235 10235 10235 10236 10237 10236 10235 10233 10232 10230 10227 10224 10223 10222 10220 10219 10216 10214 10213 10212 10212 10213 10214 10213 10211 10210 10210 10210 10211 10215 10217 10217 10217 10219 10221 10222 10223 10226 10231 10237 10242 10247 10252 10256 10261 10268 10274 10280 10288 10298 10305 10313 10322 10332 10343 10354 10366 10378 10390 10404 10419 10432 10443
10231 10231 10230 10229 10229 10228 10227 10226 10226 10226 10226 10226 10226 10225 10225 10226 10227 10227 10226 10226 10226 10227 10228 10229 10230 10230 10230 10229 10227 10224 10222 10221 10220 10219 10217 10214 10212 10209 10207 10205 10203 10203 10203 10204 10204 10202 10199 10199 10198 10198 10200 10203 10205 10206 10208 10210 10212 10212 10214 10217 10221 10227 10233 10238 10241 10244 10250 10259 10266 10273 10281 10289 10297 10306 10315 10325 10336 10347 10359 10371 10384 10399 10413 10426 10437
10223 10222 10221 10220 10220 10219 10219 10218 10217 10217 10218 10218 10218 10217 10217 10217 10219 10219 10219 10219 10219 10220 10221 10223 10224 10224 10223 10222 10220 10218 10215 10214 10213 10211 10209 10207 10204 10202 10200 10197 10195 10194 10194 10194 10194 10192 10190 10189 10188 10187 10189 10192 10194 10195 10198 10201 10202 10203 10205 10208 10212 10217 10223 10228 10231 10236 10243 10250 10258 10266 10273 10281 10289 10298 10308 10319 10331 10342 10355 10367 10379 10393 10407 10419 10432
10215 10214 10213 10212 10212 10212 10211 10211 10210 10210 10210 10210 10210 10210 10210 10211 10212 10213 10213 10213 10213 10214 10216 10217 10217 10216 10215 10214 10214 10213 10210 10208 10206 10204 10202 10200 10198 10195 10193 10190 10188 10186 10186 10186 10184 10182 10180 10178 10178 10178 10179 10182 10184 10186 10188 10191 10192 10194 10197 10200 10203 10208 10214 10220 10225 10231 10237 10243 10251 10258 10266 10274 10282 10292 10303 10315 10326 10337 10349 10361 10374 10388 10402 10415 10428
10207 10207 10206 10206 10206 10205 10205 10204 10204 10204 10204 10204 10205 10205 10205 10206 10206 10206 10207 10208 10209 10210 10212 10212 10212 10211 10209 10209 10209 10207 10205 10203 10201 10199 10197 10195 10193 10191 10189 10185 10182 10179 10178 10177 10175 10172 10169 10168 10168 10169 10170 10172 10174 10177 10179 10181 10183 10185 10188 10191 10195 10200 10207 10214 10219 10224 10230 10236 10244 10251 10258 10266 10276 10286 10297 10309 10321 10333 10345 10358 10372 10386 10398 10410 10423
10201 10201 10201 10200 10200 10200 10199 10199 10199 10199 10200 10200 10200 10200 10201 10201 10201 10202 10202 10204 10205 10205 10206 10207 10207 10206 10206 10205 10204 10203 10200 10198 10196 10195 10194 10192 10190 10186 10183 10179 10175 10171 10169 10168 10166 10164 10161 10160 10159 10160 10161 10163 10165 10168 10171 10173 10174 10176 10179 10183 10187 10194 10201 10207 10212 10217 10223 10230 10237 10243 10251 10260 10270 10280 10292 10305 10317 10328 10340 10353 10367 10381 10393 10406 10419
10196 10196 10196 10196 10195 10195 10195 10195 10196 10196 10196 10196 10196 10197 10197 10197 10198 10198 10199 10200 10201 10201 10201 10201 10200 10200 10201 10201 10200 10198 10196 10194 10192 10191 10189 10186 10182 10178 10174 10169 10166 10163 10161 10159 10158 10156 10154 10153 10153 10152 10153 10154 10156 10159 10162 10164 10166 10168 10171 10176 10181 10188 10194 10200 10204 10209 10217 10224 10231 10238 10246 10255 10265 10276 10288 10301 10313 10324 10335 10348 10362 10375 10388 10401 10414
10192 10192 10192 10191 10191 10191 10192 10193 10193 10193 10193 10193 10193 10194 10194 10194 10195 10196 10197 10197 10198 10198 10198 10197 10196 10195 10195 10194 10194 10192 10190 10188 10186 10184 10181 10178 10174 10170 10166 10163 10159 10155 10153 10151 10150 10148 10147 10146 10146 10145 10145 10146 10148 10151 10154 10156 10158 10161 10164 10170 10176 10182 10187 10192 10197 10203 10211 10219 10226 10233 10241 10251 10261 10272 10284 10296 10308 10320 10332 10346 10360 10372 10384 10398 10411
10188 10188 10188 10188 10189 10189 10190 10190 10190 10190 10191 10191 10191 10191 10191 10192 10193 10193 10194 10195 10195 10195 10195 10195 10194 10192 10190 10188 10187 10186 10183 10181 10178 10175 10172 10168 10165 10162 10159 10156 10152 10149 10146 10143 10142 10141 10140 10139 10139 10139 10139 10140 10141 10144 10147 10149 10152 10155 10159 10164 10170 10176 10182 10187 10193 10199 10207 10215 10221 10228 10237 10247 10258 10268 10280 10292 10305 10317 10330 10343 10357 10370 10383 10397 10410
10185 10185 10185 10186 10187 10188 10188 10188 10188 10188 10189 10188 10189 10189 10189 10190 10191 10191 10192 10193 10193 10193 10193 10193 10192 10190 10187 10185 10183 10181 10177 10174 10170 10167 10163 10160 10157 10155 10152 10149 10146 10143 10140 10138 10136 10134 10133 10133 10133 10133 10133 10134 10135 10138 10141 10144 10146 10150 10154 10159 10166 10171 10176 10182 10188 10195 10203 10210 10217 10225 10234 10244 10254 10264 10276 10288 10301 10314 10328 10341 10354 10368 10381 10394 10406
10182 10183 10183 10184 10185 10186 10186 10186 10186 10187 10186 10186 10187 10187 10188 10188 10189 10189 10190 10191 10191 10191 10191 10191 10190 10187 10184 10182 10180 10177 10174 10169 10165 10162 10159 10155 10152 10149 10146 10143 10140 10137 10134 10132 10131 10129 10128 10128 10127 10128 10128 10129 10130 10133 10135 10138 10141 10145 10149 10155 10161 10166 10171 10177 10183 10191 10199 10206 10214 10223 10232 10242 10252 10262 10273 10286 10299 10312 10325 10338 10351 10364 10377 10389 10401
10181 10181 10182 10183 10184 10184 10184 10185 10185 10185 10185 10185 10185 10186 10186 10187 10187 10187 10188 10189 10189 10189 10189 10188 10188 10186 10183 10181 10177 10174 10171 10167 10162 10159 10156 10152 10148 10145 10142 10139 10135 10132 10130 10128 10126 10125 10124 10124 10123 10123 10124 10125 10126 10128 10131 10134 10137 10141 10146 10151 10157 10162 10167 10174 10180 10187 10195 10203 10211 10221 10230 10240 10249 10259 10270 10283 10296 10310 10323 10336 10348 10362 10374 10386 10398
10179 10180 10181 10182 10183 10183 10183 10183 10183 10183 10183 10184 10184 10185 10185 10186 10185 10186 10186 10187 10187 10187 10186 10185 10184 10183 10182 10179 10175 10171 10168 10165 10160 10157 10154 10149 10145 10141 10138 10135 10131 10128 10126 10124 10123 10122 10121 10120 10120 10120 10121 10122 10123 10125 10128 10130 10134 10138 10143 10148 10153 10159 10165 10171 10178 10185 10193 10201 10210 10220 10229 10237 10246 10257 10268 10281 10295 10309 10322 10335 10348 10361 10373 10384 10396
10178 10179 10180 10181 10181 10181 10182 10182 10182 10182 10182 10183 10183 10184 10185 10185 10184 10184 10185 10185 10185 10185 10184 10182 10180 10179 10178 10176 10172 10168 10165 10162 10158 10154 10150 10146 10141 10137 10134 10131 10128 10125 10123 10121 10120 10119 10118 10117 10117 10118 10118 10119 10121 10123 10125 10128 10131 10136 10141 10146 10152 10157 10163 10169 10176 10183 10190 10199 10209 10219 10227 10236 10246 10256 10269 10282 10296 10309 10322 10335 10348 10361 10372 10383 10395
10177 10178 10179 10179 10180 10180 10181 10181 10181 10181 10181 10182 10183 10183 10184 10184 10183 10183 10183 10184 10183 10183 10181 10180 10178 10176 10175 10173 10169 10165 10162 10160 10156 10152 10148 10143 10139 10135 10131 10128 10125 10123 10121 10119 10118 10117 10116 10115 10115 10116 10116 10117 10119 10121 10123 10126 10130 10133 10138 10144 10151 10156 10161 10166 10173 10181 10189 10198 10208 10217 10226 10236 10246 10257 10270 10283 10297 10310 10324 10337 10349 10361 10372 10384 10394
10176 10177 10178 10178 10179 10179 10180 10180 10180 10180 10180 10181 10182 10182 10183 10182 10182 10182 10182 10182 10182 10181 10180 10178 10176 10174 10173 10170 10167 10163 10160 10157 10154 10150 10146 10141 10137 10133 10130 10127 10124 10121 10120 10118 10116 10115 10114 10114 10114 10115 10115 10116 10118 10120 10122 10125 10129 10133 10138 10144 10151 10156 10161 10166 10173 10181 10189 10199 10208 10216 10225 10235 10246 10258 10271 10285 10298 10311 10325 10338 10349 10361 10372 10382 10393
10175 10176 10177 10177 10177 10178 10178 10178 10178 10178 10179 10180 10180 10181 10181 10181 10181 10181 10181 10181 10181 10180 10179 10177 10174 10172 10170 10168 10166 10162 10158 10155 10152 10148 10145 10141 10137 10132 10129 10126 10123 10121 10119 10117 10116 10115 10114 10114 10114 10114 10115 10116 10117 10119 10122 10125 10129 10134 10139 10145 10151 10158 10164 10169 10175 10182 10191 10199 10208 10216 10226 10236 10247 10259 10272 10285 10299 10312 10325 10337 10349 10360 10370 10381 10392
10174 10175 10175 10175 10176 10176 10176 10176 10176 10177 10177 10178 10179 10179 10179 10180 10180 10180 10181 10181 10180 10179 10178 10176 10174 10170 10168 10166 10164 10161 10157 10154 10151 10147 10144 10140 10136 10132 10128 10125 10123 10120 10118 10117 10116 10115 10115 10114 10114 10115 10115 10117 10118 10120 10123 10127 10131 10136 10142 10147 10153 10158 10165 10172 10179 10187 10195 10203 10211 10220 10229 10239 10250 10262 10275 10288 10301 10314 10326 10337 10349 10360 10370 10381 10392
10173 10173 10173 10174 10174 10174 10174 10174 10174 10175 10175 10176 10177 10178 10178 10179 10179 10179 10180 10180 10179 10178 10176 10175 10173 10170 10167 10164 10162 10159 10156 10152 10149 10145 10142 10139 10135 10132 10129 10126 10123 10121 10119 10117 10117 10116 10116 10116 10116 10116 10117 10118 10120 10122 10125 10129 10133 10139 10145 10150 10154 10160 10167 10175 10183 10192 10200 10208 10216 10226 10235 10244 10254 10266 10278 10291 10303 10315 10326 10338 10349 10361 10372 10383 10394
10171 10171 10172 10172 10172 10172 10172 10173 10173 10173 10174 10174 10175 10176 10177 10178 10178 10179 10179 10179 10178 10176 10174 10173 10171 10169 10166 10162 10160 10157 10154 10151 10148 10144 10141 10138 10135 10132 10129 10126 10124 10122 10120 10119 10118 10118 10118 10118 10119 10119 10119 10120 10122 10125 10128 10131 10136 10141 10146 10151 10156 10162 10168 10176 10185 10193 10202 10211 10221 10231 10240 10250 10260 10271 10282 10293 10305 10316 10328 10340 10352 10363 10374 10385 10395
10169 10169 10170 10170 10170 10170 10170 10171 10171 10171 10172 10173 10174 10175 10177 10177 10178 10178 10178 10178 10177 10175 10173 10171 10169 10167 10165 10162 10159 10156 10154 10151 10148 10144 10141 10138 10136 10133 10130 10127 10125 10123 10121 10120 10120 10120 10121 10122 10122 10122 10122 10123 10125 10128 10131 10135 10139 10144 10148 10153 10158 10163 10169 10177 10185 10193 10202 10212 10222 10233 10243 10253 10264 10275 10286 10297 10308 10319 10331 10343 10354 10365 10375 10386 10395